Turn to Pro Staff to improve your employment story with great Administrative and Light Industrial work.

 

Allow us to put you in front of some of the area’s top employers. Check out this list of current administrative and light industrial jobs, including temporary, temp-to-hire, and direct-hire opportunities.

Don’t see something that matches your skills and experience? Connect with your local office and we’ll help you find the right fit.

 

The Pro Staff Mobile App

Finding your next job just got easier! Introducing the new Pro Staff mobile app available free from the App Store or on Google Play.

Now you can take your job search on the go. Find local jobs, get directions and quickly and easily apply — all from your mobile device!

Download now:

Pro Staff Job Search App iOS

Atterro Job Search App Android

440 Results

ID Position Title Position Type City State
304165 Temp RICHARDSON TX Mon Oct 16 22:57:15 GMT 2017
304164 Temp RICHARDSON TX Mon Oct 16 22:41:14 GMT 2017
303783 Temp PLYMOUTH MN Mon Oct 16 17:32:28 GMT 2017
303286 Temp to Hire Cypress TX Mon Oct 16 17:28:57 GMT 2017
300744 Temp to Hire Brooklyn Park MN Mon Oct 16 17:14:32 GMT 2017
302722 Temp to Hire MONTICELLO MN Mon Oct 16 17:11:50 GMT 2017
300130 Temp to Hire Plymouth MN Mon Oct 16 16:56:05 GMT 2017
276386 Temp to Hire MINNEAPOLIS MN Mon Oct 16 16:51:26 GMT 2017
303832 Temp to Hire NEENAH WI Mon Oct 16 16:35:15 GMT 2017
294400 Temp to Hire WACONIA MN Mon Oct 16 16:32:41 GMT 2017
293856 Temp to Hire EDEN PRAIRIE MN Mon Oct 16 16:30:11 GMT 2017
278326 Open Alexandria MN Mon Oct 16 16:18:33 GMT 2017
302814 Temp Kansas City MO Mon Oct 16 15:00:19 GMT 2017
303424 Temp Maple Grove MN Mon Oct 16 14:55:40 GMT 2017
290393 Temp Inver Grove Heights MN Mon Oct 16 14:44:08 GMT 2017
267986 Temp NORTH KANSAS CITY MO Mon Oct 16 14:42:03 GMT 2017
241262 Temp KANSAS CITY MO Mon Oct 16 14:39:43 GMT 2017
250472 Temp to Hire Kansas City MO Mon Oct 16 14:27:57 GMT 2017
303963 Temp OVERLAND PARK KS Mon Oct 16 10:20:32 GMT 2017
303985 Temp Minneapolis MN Fri Oct 13 17:02:59 GMT 2017
303949 Temp Minneapolis MN Fri Oct 13 16:33:11 GMT 2017
274906 Temp LAKEVILLE MN Fri Oct 13 16:08:18 GMT 2017
302874 Temp SHAKOPEE MN Fri Oct 13 16:06:12 GMT 2017
301468 Temp to Hire SHAKOPEE MN Fri Oct 13 15:59:19 GMT 2017
296099 Temp to Hire SHAKOPEE MN Fri Oct 13 15:39:10 GMT 2017
303926 Temp to Hire BRAINERD MN Fri Oct 13 14:28:43 GMT 2017
303930 Temp to Hire GREEN BAY WI Fri Oct 13 13:26:35 GMT 2017
303910 Temp PLYMOUTH MN Fri Oct 13 12:34:37 GMT 2017
303898 Temp GREEN BAY WI Fri Oct 13 12:17:30 GMT 2017
303905 Temp AMES IA Fri Oct 13 12:11:45 GMT 2017
303577 Temp to Hire Green Bay WI Fri Oct 13 12:07:15 GMT 2017
303381 Temp EAGAN MN Fri Oct 13 12:03:05 GMT 2017
232129 Temp to Hire NORTHBROOK IL Fri Oct 13 10:40:57 GMT 2017
303830 Temp to Hire NEENAH WI Fri Oct 13 10:38:43 GMT 2017
303838 Open BRAINERD MN Fri Oct 13 10:38:17 GMT 2017
303839 Open BRAINERD MN Fri Oct 13 10:34:25 GMT 2017
261372 Temp AURORA IL Fri Oct 13 10:29:17 GMT 2017
295225 Temp to Hire WHEELING IL Fri Oct 13 10:27:31 GMT 2017
274475 Temp to Hire Schaumburg IL Fri Oct 13 10:27:09 GMT 2017
303321 Temp to Hire HORTONVILLE WI Fri Oct 13 10:25:23 GMT 2017
303324 Temp to Hire NEENAH WI Fri Oct 13 10:24:11 GMT 2017
298998 Temp to Hire Chicago IL Fri Oct 13 10:22:47 GMT 2017
269473 Temp to Hire WOOD DALE IL Fri Oct 13 10:21:51 GMT 2017
289987 Temp to Hire ELK GROVE VILLAGE IL Fri Oct 13 10:21:51 GMT 2017
289680 Temp to Hire Plainfield IL Fri Oct 13 10:16:37 GMT 2017
289335 Temp to Hire Plainfield IL Fri Oct 13 10:10:15 GMT 2017
303719 Temp to Hire Kaukauna WI Fri Oct 13 09:48:58 GMT 2017
303823 Temp PLYMOUTH MN Fri Oct 13 09:19:40 GMT 2017
303824 Temp PLYMOUTH MN Fri Oct 13 09:06:13 GMT 2017
303822 Temp to Hire SAUK RAPIDS MN Fri Oct 13 08:51:27 GMT 2017
299340 Temp RICHARDSON TX Thu Oct 12 17:21:32 GMT 2017
303779 Open DEERWOOD MN Thu Oct 12 16:37:58 GMT 2017
300407 Open DEERWOOD MN Thu Oct 12 16:15:47 GMT 2017
298250 Open DEERWOOD MN Thu Oct 12 15:57:17 GMT 2017
298251 Temp to Hire DEERWOOD MN Thu Oct 12 15:51:32 GMT 2017
283953 Temp to Hire DEERWOOD MN Thu Oct 12 15:31:45 GMT 2017
303773 Direct Hire Addison TX Thu Oct 12 15:17:57 GMT 2017
302369 Open BRAINERD MN Thu Oct 12 15:16:16 GMT 2017
288884 Open BAXTER MN Thu Oct 12 15:11:10 GMT 2017
298271 Open BAXTER MN Thu Oct 12 15:04:51 GMT 2017
301923 Temp to Hire PILLAGER MN Thu Oct 12 14:37:51 GMT 2017
303736 Open Minneapolis MN Thu Oct 12 12:49:16 GMT 2017
303732 Temp to Hire BRAINERD MN Thu Oct 12 12:09:38 GMT 2017
291565 Temp to Hire LITTLE FALLS MN Thu Oct 12 11:28:58 GMT 2017
303200 Temp DELANO MN Thu Oct 12 11:16:34 GMT 2017
303209 Temp DELANO MN Thu Oct 12 11:12:17 GMT 2017
295595 Temp TROY AL Thu Oct 12 09:48:59 GMT 2017
303659 Temp PLYMOUTH MN Wed Oct 11 18:18:47 GMT 2017
301952 Open St. Cloud MN Wed Oct 11 17:52:46 GMT 2017
299735 Temp DES MOINES IA Wed Oct 11 17:51:06 GMT 2017
301392 Open Little Falls MN Wed Oct 11 17:49:09 GMT 2017
298583 Direct Hire ANKENY IA Wed Oct 11 17:49:05 GMT 2017
303652 Open SOUTH ST PAUL MN Wed Oct 11 17:30:19 GMT 2017
303613 Temp Minneapolis MN Wed Oct 11 17:18:12 GMT 2017
303651 Temp to Hire ANKENY IA Wed Oct 11 17:08:51 GMT 2017
303365 Direct Hire LAKEVILLE MN Wed Oct 11 16:30:36 GMT 2017
303140 Direct Hire BUFFALO GROVE IL Wed Oct 11 16:29:29 GMT 2017
297838 Temp RIDGEFIELD PARK NJ Wed Oct 11 16:24:02 GMT 2017
303629 Temp BAXTER MN Wed Oct 11 16:03:24 GMT 2017
302201 Temp to Hire BROOKLYN PARK MN Wed Oct 11 15:58:37 GMT 2017
302197 Temp to Hire BROOKLYN PARK MN Wed Oct 11 15:46:09 GMT 2017
302198 Temp BROOKLYN PARK MN Wed Oct 11 15:38:46 GMT 2017
297286 Temp to Hire DES MOINES IA Wed Oct 11 15:38:40 GMT 2017
303624 Open ALBANY MN Wed Oct 11 15:36:49 GMT 2017
303595 Open St. Cloud MN Wed Oct 11 13:14:01 GMT 2017
291562 Temp to Hire LITTLE FALLS MN Wed Oct 11 13:07:59 GMT 2017
303586 Temp to Hire Green Bay WI Wed Oct 11 13:06:25 GMT 2017
267414 Open St. Cloud MN Wed Oct 11 12:33:33 GMT 2017
301428 Open St. Cloud MN Wed Oct 11 12:29:49 GMT 2017
296988 Temp BLAINE MN Wed Oct 11 11:40:23 GMT 2017
303554 Temp to Hire WHITE BEAR TOWNSHIP MN Wed Oct 11 11:20:35 GMT 2017
303550 Temp to Hire DES MOINES IA Wed Oct 11 11:04:32 GMT 2017
303549 Open Lake Crystal MN Wed Oct 11 11:00:25 GMT 2017
303495 Temp STAFFORD TX Wed Oct 11 10:53:21 GMT 2017
303532 Open Minneapolis MN Wed Oct 11 10:31:00 GMT 2017
302341 Temp to Hire HOUSTON TX Wed Oct 11 10:25:56 GMT 2017
301947 Open St. Cloud MN Wed Oct 11 10:00:47 GMT 2017
303531 Open SAUK RAPIDS MN Wed Oct 11 09:57:22 GMT 2017
303456 Temp to Hire GREEN BAY WI Wed Oct 11 08:57:27 GMT 2017
303460 Temp to Hire RICHFIELD MN Wed Oct 11 08:29:41 GMT 2017
294035 Temp Waller TX Tue Oct 10 20:08:36 GMT 2017
281155 Temp to Hire Waller TX Tue Oct 10 20:01:20 GMT 2017
303480 Open SOUTH ST PAUL MN Tue Oct 10 18:23:03 GMT 2017
303483 Open SOUTH ST PAUL MN Tue Oct 10 18:07:57 GMT 2017
288886 Open BAXTER MN Tue Oct 10 17:51:49 GMT 2017
298143 Temp to Hire PLYMOUTH MN Tue Oct 10 17:09:46 GMT 2017
301928 Open BAXTER MN Tue Oct 10 16:37:11 GMT 2017
303406 Open SOUTH ST PAUL MN Tue Oct 10 15:55:57 GMT 2017
303447 Temp to Hire MINNEAPOLIS MN Tue Oct 10 15:49:47 GMT 2017
299890 Open BRAINERD MN Tue Oct 10 15:49:09 GMT 2017
302233 Open BRAINERD MN Tue Oct 10 15:35:03 GMT 2017
275452 Temp to Hire COTTAGE GROVE MN Tue Oct 10 15:32:29 GMT 2017
303216 Temp ST. CLOUD MN Tue Oct 10 15:26:07 GMT 2017
294057 Open MERRIFIELD MN Tue Oct 10 15:18:02 GMT 2017
296118 Temp Savage MN Tue Oct 10 15:17:27 GMT 2017
302834 Temp to Hire LAKEVILLE MN Tue Oct 10 15:13:28 GMT 2017
302570 Temp to Hire ALEXANDRIA MN Tue Oct 10 15:12:00 GMT 2017
303343 Temp to Hire Minneapolis MN Tue Oct 10 14:50:31 GMT 2017
299487 Temp to Hire Overland Park KS Tue Oct 10 14:47:40 GMT 2017
299404 Temp OLATHE KS Tue Oct 10 14:44:38 GMT 2017
302769 Temp to Hire Olathe KS Tue Oct 10 14:26:33 GMT 2017
272217 Temp to Hire LENEXA KS Tue Oct 10 14:18:17 GMT 2017
303426 Temp to Hire WINDOM MN Tue Oct 10 14:11:21 GMT 2017
302804 Temp to Hire Waller TX Tue Oct 10 14:03:54 GMT 2017
294268 Temp to Hire Waller TX Tue Oct 10 13:54:06 GMT 2017
303287 Temp AVON MN Tue Oct 10 13:31:52 GMT 2017
303393 Open Bingham Lake MN Tue Oct 10 13:08:58 GMT 2017
257219 Temp to Hire Kansas City MO Tue Oct 10 12:26:31 GMT 2017
302286 Temp NEENAH WI Tue Oct 10 12:22:35 GMT 2017
301846 Temp PLYMOUTH MN Tue Oct 10 12:18:08 GMT 2017
301954 Temp PLYMOUTH MN Tue Oct 10 12:14:44 GMT 2017
302175 Temp to Hire Kansas City MO Tue Oct 10 11:59:04 GMT 2017
302955 Temp LENEXA KS Tue Oct 10 11:54:19 GMT 2017
302904 Temp to Hire OLATHE KS Tue Oct 10 11:53:20 GMT 2017
300252 Temp to Hire PLYMOUTH MN Tue Oct 10 11:50:25 GMT 2017
303278 Temp to Hire PLYMOUTH MN Tue Oct 10 11:49:54 GMT 2017
300015 Temp to Hire OLATHE KS Tue Oct 10 11:38:00 GMT 2017
296864 Temp to Hire PLYMOUTH MN Tue Oct 10 11:32:37 GMT 2017
302202 Temp to Hire BROOKLYN PARK MN Tue Oct 10 10:59:22 GMT 2017
303186 Temp to Hire MAHTOMEDI MN Tue Oct 10 10:05:11 GMT 2017
294831 Temp to Hire GLENWOOD MN Tue Oct 10 09:30:54 GMT 2017
300509 Temp to Hire GLENWOOD MN Tue Oct 10 09:23:28 GMT 2017
303328 Temp Appleton WI Tue Oct 10 09:13:50 GMT 2017
303327 Temp to Hire APPLETON WI Tue Oct 10 09:05:34 GMT 2017
302802 Temp SAUK RAPIDS MN Mon Oct 09 17:16:50 GMT 2017
303295 Temp Plymouth MN Mon Oct 09 17:04:20 GMT 2017
290631 Open Little Falls MN Mon Oct 09 16:02:53 GMT 2017
303267 Temp Green Bay WI Mon Oct 09 15:31:35 GMT 2017
303268 Temp to Hire Green Bay WI Mon Oct 09 15:23:39 GMT 2017
303266 Temp to Hire GREENVILLE WI Mon Oct 09 15:17:01 GMT 2017
303271 Temp PLYMOUTH MN Mon Oct 09 14:55:03 GMT 2017
299560 Temp CLEARWATER MN Mon Oct 09 12:58:51 GMT 2017
303099 Temp to Hire Lenexa KS Mon Oct 09 10:00:04 GMT 2017
303173 Open Chanhassen MN Mon Oct 09 09:18:52 GMT 2017
303170 Open Chanhassen MN Mon Oct 09 09:04:30 GMT 2017
303167 Open Chanhassen MN Mon Oct 09 08:42:43 GMT 2017
303121 Temp ALEXANDRIA MN Fri Oct 06 17:45:11 GMT 2017
303065 Temp to Hire West Allis WI Fri Oct 06 17:32:01 GMT 2017
303054 Temp to Hire West Allis WI Fri Oct 06 16:56:26 GMT 2017
303088 Temp to Hire New Berlin WI Fri Oct 06 16:16:59 GMT 2017
302920 Temp Milwaukee WI Fri Oct 06 16:11:53 GMT 2017
300308 Temp to Hire Mendota Heights MN Fri Oct 06 15:27:03 GMT 2017
299549 Temp to Hire SHAKOPEE MN Fri Oct 06 15:24:30 GMT 2017
302995 Temp to Hire Pulaski WI Fri Oct 06 15:19:54 GMT 2017
303095 Temp to Hire Pulaski WI Fri Oct 06 15:16:20 GMT 2017
298168 Temp to Hire SHAKOPEE MN Fri Oct 06 15:04:59 GMT 2017
300704 Temp to Hire LAKEVILLE MN Fri Oct 06 15:02:24 GMT 2017
303056 Temp to Hire FRIDLEY MN Fri Oct 06 12:55:06 GMT 2017
303042 Temp to Hire GREEN BAY WI Fri Oct 06 11:24:55 GMT 2017
303044 Temp to Hire GREEN BAY WI Fri Oct 06 11:24:50 GMT 2017
303026 Temp to Hire WHITE BEAR TOWNSHIP MN Fri Oct 06 11:19:48 GMT 2017
303028 Temp to Hire GREEN BAY WI Fri Oct 06 10:59:47 GMT 2017
303027 Direct Hire LITTLE CHUTE WI Fri Oct 06 10:58:04 GMT 2017
302960 Temp to Hire MAPLE GROVE MN Fri Oct 06 10:57:31 GMT 2017
303021 Temp to Hire Menasha WI Fri Oct 06 10:54:29 GMT 2017
303025 Temp to Hire GREENVILLE WI Fri Oct 06 10:52:11 GMT 2017
303024 Temp to Hire APPLETON WI Fri Oct 06 10:48:47 GMT 2017
303020 Temp to Hire Appleton WI Fri Oct 06 10:41:12 GMT 2017
303004 Temp to Hire Kansas City MO Fri Oct 06 10:34:03 GMT 2017
303009 Temp to Hire GREENVILLE WI Fri Oct 06 10:12:45 GMT 2017
303000 Temp OSHKOSH WI Fri Oct 06 10:11:12 GMT 2017
303008 Temp to Hire APPLETON WI Fri Oct 06 10:09:28 GMT 2017
302998 Temp to Hire Appleton WI Fri Oct 06 09:30:55 GMT 2017
302997 Temp to Hire GREEN BAY WI Fri Oct 06 09:27:48 GMT 2017
302496 Temp to Hire Plymouth MN Fri Oct 06 09:27:39 GMT 2017
302994 Temp to Hire Pulaski WI Fri Oct 06 09:23:22 GMT 2017
302993 Temp to Hire Oshkosh WI Fri Oct 06 09:22:04 GMT 2017
302992 Temp to Hire APPLETON WI Fri Oct 06 09:20:37 GMT 2017
302990 Temp to Hire Green Bay WI Fri Oct 06 09:13:52 GMT 2017
302658 Temp COTTAGE GROVE MN Fri Oct 06 08:20:08 GMT 2017
299708 Temp Coon Rapids MN Thu Oct 05 17:30:39 GMT 2017
297522 Temp to Hire AVON MN Thu Oct 05 17:00:37 GMT 2017
302927 Temp to Hire GREENVILLE WI Thu Oct 05 16:22:44 GMT 2017
302637 Temp PLYMOUTH MN Thu Oct 05 16:10:06 GMT 2017
302476 Temp Pine Brook NJ Thu Oct 05 16:01:14 GMT 2017
292167 Temp to Hire COTTAGE GROVE MN Thu Oct 05 16:00:34 GMT 2017
292154 Temp to Hire COTTAGE GROVE MN Thu Oct 05 15:57:46 GMT 2017
295575 Temp to Hire FRIDLEY MN Thu Oct 05 15:55:26 GMT 2017
295523 Temp EDINA MN Thu Oct 05 15:54:53 GMT 2017
291766 Temp to Hire Elk River MN Thu Oct 05 15:51:08 GMT 2017